Weather History for Sioux City, IA

Change the Weather History Date:

Monday, March 18, 2013

  Actual Average Record
Temperature  
Mean Temperature 28 °F 37 °F  
Max Temperature 36 °F 49 °F 86 °F (2012)
Min Temperature 20 °F 26 °F -9 °F (1923)
Degree Days  
Heating Degree Days 37 28  
Month to date heating degree days 635 565  
Since 1 July heating degree days 5784 5859  
Cooling Degree Days 0 0  
Month to date cooling degree days 0 0  
Year to date cooling degree days 0 0  
Moisture  
Dew Point 20 °F    
Average Humidity 73    
Maximum Humidity 96    
Minimum Humidity 49    
Precipitation  
Precipitation T in 0.07 in 0.73 in (1963)
Month to date precipitation 1.55 0.97  
Year to date precipitation 2.75 2.26  
Snow  
Snow T in 0.20 in 3.10 in (1957)
Month to date snowfall 10.0 4.2  
Since 1 July snowfall 30.8 30.7  
Snow Depth T in    
Sea Level Pressure  
Sea Level Pressure 29.85 in    
Wind  
Wind Speed 20 mph (WNW)    
Max Wind Speed 29 mph    
Max Gust Speed 44 mph    
Visibility 9 miles    
Events Rain , Snow    
T = Trace of Precipitation, MM = Missing Value Source: NWS Daily Summary

Daily Weather History Graph

Daily Weather History Graph

Search for Another Location

Airport:

Trip Planner

Search our weather history database for the weather conditions in past years. The results will help you decide how hot, cold, wet, or windy it might be!

Date:

Astronomy

Mar. 18, 2013 Rise Set
Actual Time 7:31 AM CDT 7:35 PM CDT
Civil Twilight 7:03 AM CDT 8:03 PM CDT
Nautical Twilight 6:31 AM CDT 8:36 PM CDT
Astronomical Twilight 5:57 AM CDT 9:10 PM CDT
Moon 11:25 AM CDT (3/18) 1:42 AM CDT (3/18)
Length of Visible Light 13h 00m
Length of Day
12h 04m
Waxing Crescent, 41% of the Moon is Illuminated
Mar 18
Waxing Crescent
Mar 19
First Quarter
Mar 27
Full
Apr 2
Last Quarter
Apr 10
New

Hourly Weather History & Observations

Time (CDT) Temp. Windchill Dew Point Humidity Pressure Visibility Wind Dir Wind Speed Gust Speed Precip Events Conditions
12:52 AM 34.0 °F 23.8 °F 32.0 °F 92% 29.74 in 8.0 mi SSE 16.1 mph 23.0 mph N/A   Overcast
1:52 AM 34.0 °F 25.0 °F 32.0 °F 92% 29.77 in 10.0 mi South 12.7 mph - N/A   Overcast
2:19 AM 33.8 °F 23.9 °F 32.0 °F 93% 29.74 in 10.0 mi SSW 15.0 mph - N/A   Overcast
2:52 AM 34.0 °F 22.7 °F 32.0 °F 92% 29.77 in 9.0 mi SSW 19.6 mph 24.2 mph N/A   Overcast
3:37 AM 33.8 °F 23.9 °F 32.0 °F 93% 29.72 in 6.0 mi SSW 15.0 mph - 0.00 in Rain Light Rain
3:52 AM 34.0 °F 23.8 °F 32.0 °F 92% 29.74 in 5.0 mi SSW 16.1 mph - 0.00 in Rain Light Rain
4:10 AM 35.6 °F 24.5 °F 33.8 °F 93% 29.71 in 8.0 mi West 20.7 mph 34.5 mph 0.00 in Rain Light Rain
4:13 AM 35.6 °F 24.2 °F 33.8 °F 93% 29.70 in 9.0 mi West 21.9 mph 34.5 mph 0.00 in Rain Light Rain
4:25 AM 35.6 °F 26.2 °F 32.0 °F 87% 29.71 in 10.0 mi WNW 15.0 mph 21.9 mph 0.00 in   Overcast
4:33 AM 35.6 °F 27.1 °F 32.0 °F 87% 29.71 in 10.0 mi WNW 12.7 mph 20.7 mph 0.00 in   Overcast
4:40 AM 35.6 °F 26.2 °F 30.2 °F 81% 29.71 in 10.0 mi WNW 15.0 mph 21.9 mph 0.00 in   Overcast
4:52 AM 35.1 °F 23.8 °F 28.0 °F 76% 29.73 in 10.0 mi WNW 20.7 mph 27.6 mph 0.00 in   Overcast
5:52 AM 32.0 °F 22.1 °F 25.0 °F 75% 29.77 in 10.0 mi NW 13.8 mph 23.0 mph N/A   Partly Cloudy
6:06 AM 32.0 °F 21.6 °F 24.8 °F 75% 29.74 in 10.0 mi NW 15.0 mph 24.2 mph N/A   Mostly Cloudy
6:40 AM 30.2 °F 15.7 °F 19.4 °F 64% 29.75 in 10.0 mi NW 27.6 mph 41.4 mph 0.00 in Snow Light Snow
6:52 AM 28.4 °F 13.0 °F 17.6 °F 64% 29.75 in 9.0 mi NW 28.8 mph 34.5 mph N/A   Overcast
7:52 AM 27.0 °F 12.2 °F 16.0 °F 63% 29.81 in 10.0 mi WNW 24.2 mph 35.7 mph N/A   Scattered Clouds
8:52 AM 27.0 °F 11.9 °F 15.1 °F 61% 29.82 in 10.0 mi NW 25.3 mph 31.1 mph N/A   Clear
9:52 AM 26.1 °F 12.7 °F 15.1 °F 63% 29.85 in 10.0 mi NW 18.4 mph 31.1 mph 0.00 in   Partly Cloudy
10:52 AM 24.1 °F 8.3 °F 12.0 °F 60% 29.88 in 10.0 mi NW 24.2 mph 39.1 mph 0.00 in   Mostly Cloudy
11:52 AM 24.1 °F 7.4 °F 10.9 °F 57% 29.91 in 9.0 mi NW 27.6 mph 36.8 mph N/A   Overcast
12:52 PM 24.1 °F 8.3 °F 10.9 °F 57% 29.93 in 10.0 mi NW 24.2 mph 38.0 mph 0.00 in Snow Light Snow
12:55 PM 24.8 °F 9.6 °F 12.2 °F 59% 29.89 in 10.0 mi NW 23.0 mph 35.7 mph N/A   Overcast
1:52 PM 24.1 °F 8.0 °F 10.9 °F 57% 29.92 in 10.0 mi NW 25.3 mph 36.8 mph N/A   Overcast
2:52 PM 27.0 °F 11.6 °F 12.0 °F 53% 29.94 in 10.0 mi NW 26.5 mph 38.0 mph N/A   Mostly Cloudy
3:52 PM 28.9 °F 14.5 °F 14.0 °F 54% 29.94 in 10.0 mi NW 25.3 mph 32.2 mph N/A   Mostly Cloudy
4:52 PM 30.9 °F 17.5 °F 14.0 °F 50% 29.94 in 10.0 mi NW 24.2 mph 35.7 mph N/A   Scattered Clouds
5:52 PM 30.9 °F 17.8 °F 14.0 °F 50% 29.96 in 10.0 mi NW 23.0 mph 32.2 mph N/A   Clear
6:52 PM 30.0 °F 17.2 °F 14.0 °F 51% 29.98 in 10.0 mi NW 20.7 mph 28.8 mph N/A   Clear
7:52 PM 28.9 °F 16.1 °F 14.0 °F 54% 30.01 in 10.0 mi NNW 19.6 mph - N/A   Clear
8:52 PM 26.1 °F 13.1 °F 12.9 °F 58% 30.05 in 10.0 mi NNW 17.3 mph 25.3 mph N/A   Clear
9:52 PM 24.1 °F 11.0 °F 12.9 °F 62% 30.07 in 10.0 mi NNW 16.1 mph - N/A   Clear
10:52 PM 21.9 °F 11.0 °F 10.9 °F 63% 30.06 in 10.0 mi North 10.4 mph - N/A   Clear
11:52 PM 21.0 °F 7.6 °F 10.9 °F 65% 30.09 in 10.0 mi NW 15.0 mph - N/A   Clear